Flag for United Arab Emirates Weather past 2 weeks in Umm al-Quwain, Umm al-Quwain, United Arab Emirates

Now
95 °F

Passing clouds.


Feels Like: 100 °F
Forecast: 76 / 93 °F
Wind: 8 mph from Southwest

Location: Sharjah International Airport


UV Index: 7 (High)

Visibility: N/A


Pressure: 29.92 "Hg

Humidity: 41%

Dew point: 68 °F

Location of Umm al-QuwainLocation

Historic Weather in Umm al-Quwain

°F

Umm al-Quwain temperature yesterday

Maximum temperature yesterday: 100 °F (at 3:00 PM)
Minimum temperature yesterday: 79 °F (at 12:00 AM)
Average temperature yesterday: 87 °F

Past Weeks' High & Low Weather Summary

 TemperatureHumidityPressure
High104 °F (Apr 16, 2:00 PM)83% (Apr 9, 5:00 AM)30.04 "Hg (Apr 9, 5:00 AM)
Low66 °F (Apr 9, 5:00 AM)5% (Apr 11, 12:00 PM)29.68 "Hg (Apr 17, 4:00 PM)
Average85 °F43%29.84 "Hg
* Reported Apr 8 11:00 AM — Apr 23 11:00 AM, Umm al-Quwain, Weather by CustomWeather, © 2014

Note: Actual official high and low records may vary slightly from our data, if they occured in-between our weather recording intervals... More about our weather records

Advertising

Historic Weather Conditions — Data for Previous 24 hours

 ConditionsComfort  
Time TempWeatherWind HumidityBarometerVisibility
11:00 AM
Apr 23
93 °FPassing clouds.7 mph44%29.95 "HgN/A
10:00 AM90 °FPassing clouds.6 mph52%29.95 "HgN/A
9:00 AM88 °FPassing clouds.3 mph59%29.95 "HgN/A
8:00 AM84 °FSunny.6 mph66%29.95 "Hg10 mi
7:00 AM81 °FSunny.5 mph70%29.92 "Hg10 mi
6:00 AM79 °FSunny.7 mph74%29.89 "Hg10 mi
5:00 AM81 °FClear.8 mph70%29.89 "Hg10 mi
4:00 AM81 °FClear.6 mph70%29.86 "Hg10 mi
3:00 AM81 °FClear.6 mph70%29.86 "Hg10 mi
2:00 AM81 °FClear.3 mph66%29.89 "Hg10 mi
1:00 AM82 °FClear.2 mph62%29.89 "Hg10 mi
12:00 AM84 °FClear.5 mph62%29.89 "Hg10 mi
11:00 PM
Apr 22
84 °FClear.10 mph62%29.92 "Hg10 mi
10:00 PM86 °FClear.9 mph59%29.92 "Hg10 mi
9:00 PM86 °FClear.6 mph49%29.89 "Hg10 mi
8:00 PM86 °FClear.8 mph46%29.89 "Hg10 mi
7:00 PM88 °FClear.9 mph43%29.86 "Hg10 mi
6:00 PM88 °FSunny.14 mph46%29.83 "Hg10 mi
5:00 PM93 °FSunny.12 mph41%29.83 "Hg10 mi
4:00 PM95 °FPassing clouds.12 mph41%29.83 "HgN/A
3:00 PM100 °FSunny.3 mph27%29.83 "Hg10 mi
1:00 PM97 °FPassing clouds.9 mph30%29.89 "HgN/A
12:00 PM95 °FPassing clouds.8 mph34%29.92 "HgN/A
Weather by CustomWeather, © 2014

See weather overview